Regional Weather Roundup
Issued by NWS

Home | Current Version | Previous Version | Graphics & Text | Print | Product List | Glossary On
Versions: 1 2 3 4 5 6 7 8 9 10 11 12 13 14 15 16 17 18 19 20 21 22 23 24 25 26 27
000
ASUS45 KSLC 210810
RWRUT

UTAH REGIONAL WEATHER ROUNDUP
NATIONAL WEATHER SERVICE SALT LAKE CITY UT
100 AM MST SUN JAN 21 2018

UTZ001>011-023>025-210900-

NORTHERN UTAH

CITY           SKY/WX    TMP DP  RH WIND       PRES   REMARKS
BRIGHAM CITY   PTCLDY    29  20  69 N7        30.01S WCI  22
HILL AFB       PTCLDY    26  19  75 N12       29.98R WCI  16
LOGAN          MOCLDY    22  16  78 W5        30.01R WCI  16
OGDEN          PTCLDY    28  20  71 NW15      29.98S WCI  16
SALT LAKE CITY MOCLDY    25  20  81 N9        29.99S WCI  15
TOOELE VALLEY  MOCLDY    25  19  80 W13       30.02R WCI  13
WENDOVER       MOCLDY    27  17  66 NW13      30.07R WCI  16
HEBER CITY       N/A     23  18  80 CALM      29.89R
WEST JORDAN    MOCLDY    23  21  93 N10       30.00R WCI  13

$$

UTZ011>015-024>027-210900-

CENTRAL/NORTHEAST UTAH

CITY           SKY/WX    TMP DP  RH WIND       PRES   REMARKS
PROVO AIRPORT  MOCLDY    28  22  78 N15       29.96S WCI  16
MOAB/CANYONLAN PTCLDY    30  21  69 W15       29.75R WCI  19
DELTA          CLOUDY    21  18  86 NW6       29.99S WCI  14
PRICE          CLOUDY    25  15  66 NW10      29.77R WCI  15
RICHFIELD      MOCLDY    21  21 100 CALM      29.95
ROOSEVELT      CLOUDY    28  25  86 W3        29.82R
VERNAL         CLOUDY    28  22  78 SW5       29.78S WCI  23

$$

UTZ013>016-019>022-027-210900-

SOUTHERN UTAH

CITY           SKY/WX    TMP DP  RH WIND       PRES   REMARKS
BRYCE CANYON   FLURRIES  17  13  84 NW17G24   29.83S WCI   1
CEDAR CITY     CLOUDY    19  17  92 N6        29.97R WCI  11
MILFORD        CLOUDY    21  18  88 NE8       30.00R WCI  11
ST GEORGE      PTSUNNY   36  27  69 CALM      30.04R
HANKSVILLE     MOCLDY    32  14  47 NW7       29.83F WCI  26
KANAB          CLEAR     25  23  93 MISG      29.96
BLANDING         N/A     29  27  93 CALM      29.83S

$$

REGIONAL REPORTS     COLORADO/ARIZONA

CITY           SKY/WX    TMP DP  RH WIND       PRES   REMARKS
CRAIG, CO      LGT SNOW  24  20  84 W9        29.75S FOG     WCI  14
GRAND JUNCTION LGT SNOW  32  32 100 N3        29.71F FOG
RIFLE, CO      CLOUDY    32  32 100 SW7       29.70F WCI  26
MONTROSE, CO   CLOUDY    36  22  56 W15       29.73S WCI  27
CORTEZ, CO     PTCLDY    27  23  85 S7        29.78F WCI  19
COLORADO CITY    N/A     30  23  74 NW18G26   29.98R WCI  18
PAGE, AZ       PTCLDY    36  14  40 W10G22    29.83S WCI  28
GRAND CANYON   MOCLDY    20  16  84 W7        29.88R WCI  11
KINGMAN, AZ    PTCLDY   N/A N/A N/A N10       30.07R
FLAGSTAFF, AZ  CLOUDY    22  17  81 CALM      29.86R

$$

REGIONAL REPORTS    NEVADA/IDAHO/WYOMING

CITY           SKY/WX    TMP DP  RH WIND       PRES   REMARKS
LAS VEGAS, NV  CLEAR     45  14  28 NW15      30.12R
ELY, NY        MOCLDY    11   8  88 N6        30.05R WCI   1
ELKO, NV       CLOUDY    27  20  75 W3        30.12R
POCATELLO, ID  PTCLDY    24  18  77 SW6       30.05R WCI  17
BURLEY, ID     CLEAR     27  23  85 W10       30.05S WCI  17
FORT BRIDGER,  LGT SNOW  19  19 100 W10       29.88S WCI   7
EVANSTON, WY   CLOUDY    16  13  88 NW8       29.87S WCI   5
ROCK SPRINGS,  CLOUDY    20  14  77 NE15      29.84S WCI   6

$$




USA.gov is the U.S. government's official web portal to all federal, state and local government web resources and services.